Flight Information

DEPARTURE
BULLHEAD CITY, AZ
Elevation:
707
Runways:
16/34 - 8501x150 - ASPH-G
ATIS:
119.825
Ground:
118.25
Tower:
BULLHEAD TOWER 123.9
DESTINATION
,
Elevation:
TPA:
1000 (est.)


6591.7 NM75° True-14° Var61° HDG

Flight Plan:
(click to file on line)

1. Type
2. Aircraft Identification
3. Aircraft Type / Special Equipment
4. True Airspeed
kts
5. Departure Airport
(ICAO code)
6. Arriving Airport
(ICAO code)
7. Cruising Altitude
ft
8. Alternate Airport
(ICAO code)
9. Route of Flight
10. Remarks


00:00:00 Departure ATIS: Destination ATIS:

Clearance Limit:
Route:
Altitude: Expect in minutes
Frequency:
Transponder: (7500 Hijack / 7600 Lost Comms / 7700 Emergency)


KIFP 211748Z 35025KT 10SM CLR 30/M05 A3015
Time: 2021-09-21T17:48:00Z
1632246774
Winds: 350 @ 25 kts
Visibility: 10.0 sm
Clouds (AGL): CLR
Temperature: 30.0 C
Dew Point: -5.0 C
Pressure: 30.15059 in Hgbr


Notes:

Data extracted from FAA Digital Chart Supplement. Effective: 0901Z Thursday, AUG 12, 2021 to 0901Z Thursday, OCT 7, 2021
Current ATIS data is provided courtisy of PilotEdge.